Date String (YYYY-MM-DD hh:mm:ss) UTC,Instrument flags,absolute air pressure of the measurement (hPa),sample flow rate (lpm),inlet stack bypass flow (lpm),air temperature of the measurement (°C),ambient temperature measured by the external sensor (°C),aerosol sample conditioner tube jacket temperature (°C),OPC LED temperature (°C),internal box temperature (°C),relative humidity of the measurement (%),span deviation,mass concentration of particles derived from Lorenz-Mie calculation of OPC scattering (μg/m³),mass concentration of particles derived from Lorenz-Mie calculation of OPC scattering (μg/m³),mass concentration of particles derived from Lorenz-Mie calculation of OPC scattering (μg/m³)
DateTimeUTC,F1_M11,P_M11,Q1_M11,Q2_M11,T1_M11,T2_M11,T3_M11,T4_M11,T5_M11,U1_M11,ZSPAN_M11,X0_M11,X2_M11,X1_M11
2023-11-23 10:00:00,SystemResetWarning,0829.6,5.00,000.00,024.4,023.5,000.0,032.7,025.6,10.2,0000.0,0009.16,0002.40,0001.45
2023-11-23 10:01:00,SystemResetWarning,0829.6,5.00,000.00,024.4,023.5,000.0,032.7,025.6,10.2,0000.0,0009.29,0002.44,0001.45
2023-11-23 10:02:00,SystemResetWarning,0829.7,5.00,000.00,024.4,023.5,000.0,032.7,025.6,10.2,0000.0,0009.09,0002.42,0001.44
2023-11-23 10:03:00,SystemResetWarning,0829.6,5.00,000.00,024.4,023.5,000.0,032.7,025.7,10.2,0000.0,0008.84,0002.39,0001.43
2023-11-23 10:04:00,SystemResetWarning,0829.6,5.00,000.00,024.4,023.5,000.0,032.7,025.7,10.2,0000.0,0008.85,0002.38,0001.43
2023-11-23 10:05:00,SystemResetWarning,0829.6,5.00,000.00,024.4,023.5,000.0,032.7,025.7,10.2,0000.0,0008.54,0002.37,0001.42
2023-11-23 10:06:00,SystemResetWarning,0829.6,5.00,000.00,024.4,023.5,000.0,032.7,025.7,10.2,0000.0,0007.54,0002.34,0001.42
2023-11-23 10:07:00,SystemResetWarning,0829.6,5.00,000.00,024.4,023.5,000.0,032.7,025.7,10.2,0000.0,0007.37,0002.35,0001.41
2023-11-23 10:08:00,SystemResetWarning,0829.7,5.00,000.00,024.4,023.5,000.0,032.7,025.7,10.2,0000.0,0007.07,0002.37,0001.42
2023-11-23 10:09:00,SystemResetWarning,0829.7,5.00,000.00,024.4,023.5,000.0,032.7,025.7,10.2,0000.0,0006.73,0002.34,0001.41
2023-11-23 10:10:00,SystemResetWarning,0829.7,5.00,000.00,024.4,023.5,000.0,032.7,025.7,10.2,0000.0,0007.22,0002.30,0001.39
2023-11-23 10:11:00,SystemResetWarning,0829.6,5.00,000.00,024.4,023.5,000.0,032.7,025.6,10.2,0000.0,0006.73,0002.29,0001.37
2023-11-23 10:12:00,SystemResetWarning,0829.7,5.00,000.00,024.4,023.5,000.0,032.7,025.7,10.3,0000.0,0007.24,0002.27,0001.36
2023-11-23 10:13:00,SystemResetWarning,0829.7,5.01,000.00,024.4,023.5,000.0,032.7,025.6,10.3,0000.0,0007.44,0002.24,0001.35
2023-11-23 10:14:00,SystemResetWarning,0829.6,5.01,000.00,024.4,023.5,000.0,032.7,025.6,10.3,0000.0,0008.12,0002.23,0001.35
2023-11-23 10:15:00,SystemResetWarning,0829.6,5.01,000.00,024.4,023.5,000.0,032.7,025.6,10.3,0000.0,0008.87,0002.25,0001.34
2023-11-23 10:16:00,SystemResetWarning,0829.7,5.01,000.00,024.4,023.5,000.0,032.7,025.6,10.3,0000.0,0010.17,0002.22,0001.33
2023-11-23 10:17:00,SystemResetWarning,0829.7,5.00,000.00,024.4,023.5,000.0,032.7,025.6,10.3,0000.0,0010.25,0002.21,0001.32
2023-11-23 10:18:00,SystemResetWarning,0829.7,5.00,000.00,024.4,023.5,000.0,032.7,025.6,10.2,0000.0,0010.24,0002.17,0001.30
2023-11-23 10:19:00,SystemResetWarning,0829.7,5.00,000.00,024.4,023.5,000.0,032.7,025.6,10.2,0000.0,0010.13,0002.10,0001.29
2023-11-23 10:20:00,SystemResetWarning,0829.7,5.00,000.00,024.4,023.5,000.0,032.7,025.6,10.3,0000.0,0009.84,0002.10,0001.28
2023-11-23 10:21:00,SystemResetWarning,0829.6,5.00,000.00,024.4,023.5,000.0,032.7,025.6,10.3,0000.0,0009.71,0002.17,0001.28
2023-11-23 10:22:00,SystemResetWarning,0829.7,5.00,000.00,024.4,023.5,000.0,032.7,025.6,10.2,0000.0,0009.70,0002.18,0001.29
2023-11-23 10:23:00,SystemResetWarning,0829.7,5.00,000.00,024.4,023.5,000.0,032.7,025.7,10.2,0000.0,0009.77,0002.17,0001.29
2023-11-23 10:24:00,SystemResetWarning,0829.7,5.00,000.00,024.4,023.5,000.0,032.7,025.6,10.2,0000.0,0009.59,0002.22,0001.29
2023-11-23 10:25:00,SystemResetWarning,0829.6,5.00,000.00,024.4,023.5,000.0,032.7,025.6,10.2,0000.0,0009.01,0002.22,0001.30
2023-11-23 10:26:00,SystemResetWarning,0829.7,5.00,000.00,024.4,023.5,000.0,032.7,025.6,10.2,0000.0,0008.32,0002.20,0001.29
2023-11-23 10:27:00,SystemResetWarning,0829.7,5.00,000.00,024.4,023.5,000.0,032.7,025.6,10.3,0000.0,0007.14,0002.24,0001.28
2023-11-23 10:28:00,SystemResetWarning,0829.7,5.00,000.00,024.4,023.5,000.0,032.7,025.6,10.3,0000.0,0007.57,0002.25,0001.29
2023-11-23 10:29:00,SystemResetWarning,0829.7,5.01,000.00,024.4,023.5,000.0,032.7,025.6,10.3,0000.0,0007.60,0002.27,0001.29
2023-11-23 10:30:00,SystemResetWarning,0829.7,5.00,000.00,024.4,023.5,000.0,032.7,025.6,10.3,0000.0,0007.72,0002.32,0001.30
2023-11-23 10:31:00,SystemResetWarning,0829.7,5.00,000.00,024.4,023.5,000.0,032.7,025.6,10.3,0000.0,0007.55,0002.34,0001.30
2023-11-23 10:32:00,SystemResetWarning,0829.7,5.01,000.00,024.4,023.5,000.0,032.7,025.6,10.3,0000.0,0007.48,0002.32,0001.30
2023-11-23 10:33:00,SystemResetWarning,0829.7,4.99,000.00,024.4,023.5,000.0,032.7,025.6,10.3,0000.0,0007.41,0002.30,0001.30
2023-11-23 10:34:00,SystemResetWarning,0829.7,4.99,000.00,024.4,023.5,000.0,032.7,025.6,10.3,0000.0,0006.85,0002.28,0001.30
2023-11-23 10:35:00,SystemResetWarning,0829.7,5.00,000.00,024.4,023.5,000.0,032.7,025.6,10.3,0000.0,0007.20,0002.24,0001.30
2023-11-23 10:36:00,SystemResetWarning,0829.7,5.00,000.00,024.4,023.5,000.0,032.7,025.6,10.3,0000.0,0007.36,0002.26,0001.30
2023-11-23 10:37:00,SystemResetWarning,0829.7,5.00,000.00,024.4,023.5,000.0,032.7,025.6,10.3,0000.0,0007.31,0002.25,0001.30
2023-11-23 10:38:00,SystemResetWarning,0829.7,5.00,000.00,024.4,023.5,000.0,032.7,025.6,10.3,0000.0,0007.32,0002.28,0001.32
2023-11-23 10:39:00,SystemResetWarning,0829.7,5.01,000.00,024.4,023.5,000.0,032.7,025.6,10.3,0000.0,0007.09,0002.37,0001.32
2023-11-23 10:40:00,SystemResetWarning,0829.7,5.00,000.00,024.4,023.5,000.0,032.7,025.6,10.4,0000.0,0007.14,0002.39,0001.32
2023-11-23 10:41:00,SystemResetWarning,0829.7,5.01,000.00,024.4,023.5,000.0,032.7,025.6,10.4,0000.0,0007.15,0002.39,0001.32
2023-11-23 10:42:00,SystemResetWarning,0829.7,5.00,000.00,024.4,023.5,000.0,032.7,025.6,10.4,0000.0,0007.64,0002.40,0001.32
2023-11-23 10:43:00,SystemResetWarning,0829.7,5.00,000.00,024.4,023.5,000.0,032.7,025.6,10.4,0000.0,0007.88,0002.47,0001.32
2023-11-23 10:44:00,SystemResetWarning,0829.8,5.00,000.00,024.4,023.4,000.0,032.7,025.6,10.4,0000.0,0008.26,0002.51,0001.33
2023-11-23 10:45:00,SystemResetWarning,0829.7,5.00,000.00,024.4,023.4,000.0,032.7,025.6,10.4,0000.0,0008.34,0002.57,0001.33
2023-11-23 10:46:00,SystemResetWarning,0829.8,5.00,000.00,024.4,023.4,000.0,032.7,025.6,10.4,0000.0,0008.12,0002.63,0001.34
2023-11-23 10:47:00,SystemResetWarning,0829.8,5.00,000.00,024.4,023.4,000.0,032.7,025.6,10.4,0000.0,0008.22,0002.67,0001.33
2023-11-23 10:48:00,SystemResetWarning,0829.8,5.00,000.00,024.4,023.4,000.0,032.7,025.6,10.5,0000.0,0008.20,0002.66,0001.33
2023-11-23 10:49:00,SystemResetWarning,0829.8,5.00,000.00,024.4,023.4,000.0,032.7,025.6,10.5,0000.0,0008.11,0002.60,0001.32
2023-11-23 10:50:00,SystemResetWarning,0829.7,5.00,000.00,024.4,023.4,000.0,032.7,025.6,10.5,0000.0,0008.06,0002.50,0001.33
2023-11-23 10:51:00,SystemResetWarning,0829.7,5.00,000.00,024.4,023.4,000.0,032.7,025.6,10.5,0000.0,0008.32,0002.44,0001.34
2023-11-23 10:52:00,SystemResetWarning,0829.7,5.00,000.00,024.4,023.4,000.0,032.7,025.6,10.5,0000.0,0008.39,0002.47,0001.34
2023-11-23 10:53:00,SystemResetWarning,0829.8,5.00,000.00,024.4,023.4,000.0,032.7,025.6,10.5,0000.0,0009.43,0002.48,0001.35
2023-11-23 10:54:00,SystemResetWarning,0829.8,5.00,000.00,024.4,023.4,000.0,032.7,025.6,10.5,0000.0,0009.73,0002.42,0001.36
2023-11-23 10:55:00,SystemResetWarning,0829.9,5.00,000.00,024.4,023.4,000.0,032.7,025.6,10.5,0000.0,0009.29,0002.32,0001.35
2023-11-23 10:56:00,SystemResetWarning,0829.9,5.00,000.00,024.4,023.4,000.0,032.7,025.6,10.5,0000.0,0010.29,0002.29,0001.34
2023-11-23 10:57:00,SystemResetWarning,0830.0,5.00,000.00,024.4,023.4,000.0,032.7,025.6,10.5,0000.0,0010.61,0002.31,0001.35
2023-11-23 10:58:00,SystemResetWarning,0830.0,5.00,000.00,024.4,023.4,000.0,032.7,025.6,10.5,0000.0,0010.48,0002.22,0001.35
2023-11-23 10:59:00,SystemResetWarning,0830.0,5.00,000.00,024.4,023.4,000.0,032.7,025.6,10.5,0000.0,0010.77,0002.27,0001.36
